Location: Unspecified
(52.4292°N, 19.3359°E)
Time: 00:29:19
(UTC+02:00)

A-11 Canister half - Pass Details

Date: 20 May 2024
Orbit: 1515 x 1685 km, 47.2° (Epoch: 19 June)

Event Time Altitude Azimuth Distance (km) Brightness Sun altitude
Rises 05:57:33 0° 257° (WSW) 4,714 10.9 9.7°
Reaches altitude 10° 06:00:39 10° 255° (WSW) 3,714 10.4 10.1°
Maximum altitude 06:09:49 64° 176° (S) 1,652 9.3 11.5°
Drops below altitude 10° 06:18:53 10° 98° (E) 3,678 12.5 12.8°
Sets 06:21:57 0° 96° (E) 4,666 12.9 13.2°
